Powrót do katalogu

EKRAN 15

AktywnyŁącznośćGEO
NORAD 16729·PAYLOAD·🇷🇺 Russia

Wystrzelony May 24, 1986 z Baikonur Cosmodrome

Loading…

TLE

ŚwieżeSource: Space-Track

Epoka: Sep 13, 2026, 17:37 UTC

1 16729U 86038A   26256.73418787 -.00000069  00000-0  00000-0 0  9992
2 16729  11.3131 321.7943 0009200 352.9965  15.3509  0.96545601119219

Śledź EKRAN 15 w czasie rzeczywistym z AllMySat

Download on the App Store